West Palm Beach, FL

3:31 AM EDT on September 21, 2019 (GMT -0400)
Palm Beach International

Weather History for KPBI - July, 2019

Change the Weather History Date:

Tuesday, July 16, 2019

  Actual Average Record
Temperature  
Mean Temperature 87 °F 83 °F  
Max Temperature 92 °F 90 °F 99 °F (1981)
Min Temperature 82 °F 76 °F 68 °F (1965)
Degree Days  
Heating Degree Days 0 0  
Month to date heating degree days 0 0  
Since 1 June heating degree days 0 0  
Since 1 July heating degree days 0 0  
Cooling Degree Days 22 18  
Month to date cooling degree days 311 277  
Year to date cooling degree days 2283 1876  
Since 1 June cooling degree days 882 767  
Growing Degree Days 36 (Base 50)    
Moisture  
Dew Point 75 °F    
Average Humidity 70    
Maximum Humidity 80    
Minimum Humidity 59    
Precipitation  
Precipitation 0.01 in 0.17 in 2.19 in (1935)
Month to date precipitation 0.89 3.16  
Year to date precipitation 29.09 30.17  
Snow  
Snow 0.00 in - - ()
Month to date snowfall 0.0  
Since 1 June snowfall 0.0  
Since 1 July snowfall 0.0  
Snow Depth 0.00 in    
Sea Level Pressure  
Sea Level Pressure 30.11 in    
Wind  
Wind Speed 9 mph (ESE)    
Max Wind Speed 17 mph    
Max Gust Speed 22 mph    
Visibility 10 miles    
Events      
T = Trace of Precipitation, MM = Missing Value Source: NWS Daily Summary

Daily Weather History Graph

Daily Weather History Graph

Search for Another Location

Airport or City:

Astronomy

Jul. 16, 2019 Rise Set
Actual Time 6:37 AM EDT 8:15 PM EDT
Civil Twilight 6:11 AM EDT 8:41 PM EDT
Nautical Twilight 5:40 AM EDT 9:12 PM EDT
Astronomical Twilight 5:07 AM EDT 9:44 PM EDT
Moon 8:19 PM EDT (7/16) 6:15 AM EDT (7/16)
Length of Visible Light 14h 30m
Length of Day
13h 38m
Full, 100% of the Moon is Illuminated
Jul 16
Full
Jul 16
Full
Jul 24
Last Quarter
Jul 31
New
Aug 7
First Quarter

Hourly Weather History & Observations

Time (EDT) Temp. Heat Index Dew Point Humidity Pressure Visibility Wind Dir Wind Speed Gust Speed Precip Events Conditions
12:53 AM 84.0 °F 93.7 °F 77.0 °F 79% 30.12 in 10.0 mi East 6.9 mph - N/A   Partly Cloudy
1:53 AM 84.0 °F 91.9 °F 75.0 °F 74% 30.10 in 10.0 mi ESE 9.2 mph - N/A   Partly Cloudy
2:53 AM 82.9 °F 89.4 °F 73.9 °F 74% 30.09 in 10.0 mi ESE 6.9 mph - N/A   Partly Cloudy
3:53 AM 82.9 °F 90.2 °F 75.0 °F 77% 30.08 in 10.0 mi ESE 5.8 mph - N/A   Partly Cloudy
4:53 AM 82.9 °F 90.2 °F 75.0 °F 77% 30.07 in 10.0 mi ESE 6.9 mph - N/A   Partly Cloudy
5:53 AM 82.0 °F 88.6 °F 75.0 °F 79% 30.09 in 10.0 mi ESE 6.9 mph - N/A   Partly Cloudy
6:53 AM 82.0 °F 88.6 °F 75.0 °F 79% 30.10 in 10.0 mi SE 6.9 mph - N/A   Partly Cloudy
7:53 AM 84.0 °F 91.9 °F 75.0 °F 74% 30.11 in 10.0 mi ESE 8.1 mph - N/A   Scattered Clouds
8:53 AM 84.9 °F 94.1 °F 75.9 °F 74% 30.13 in 10.0 mi SE 5.8 mph - N/A   Scattered Clouds
9:53 AM 86.0 °F 96.9 °F 77.0 °F 74% 30.14 in 10.0 mi ESE 9.2 mph - 0.00 in   Mostly Cloudy
10:53 AM 89.1 °F 99.1 °F 75.0 °F 63% 30.14 in 10.0 mi East 8.1 mph - 0.01 in   Scattered Clouds
11:53 AM 89.1 °F 100.2 °F 75.9 °F 65% 30.14 in 10.0 mi SE 11.5 mph 18.4 mph N/A   Scattered Clouds
12:53 PM 90.0 °F 100.2 °F 75.0 °F 61% 30.13 in 10.0 mi ESE 12.7 mph - N/A   Scattered Clouds
1:53 PM 90.0 °F 97.9 °F 73.0 °F 57% 30.13 in 10.0 mi ESE 15.0 mph 19.6 mph N/A   Scattered Clouds
2:53 PM 91.0 °F 101.6 °F 75.0 °F 59% 30.12 in 10.0 mi SE 15.0 mph 19.6 mph N/A   Scattered Clouds
3:53 PM 90.0 °F 99.0 °F 73.9 °F 59% 30.11 in 10.0 mi SE 15.0 mph 20.7 mph N/A   Scattered Clouds
4:53 PM 89.1 °F 98.0 °F 73.9 °F 61% 30.09 in 10.0 mi SE 12.7 mph - N/A   Scattered Clouds
5:53 PM 89.1 °F 98.0 °F 73.9 °F 61% 30.09 in 10.0 mi SE 12.7 mph - N/A   Scattered Clouds
6:53 PM 87.1 °F 96.3 °F 75.0 °F 67% 30.10 in 10.0 mi SE 11.5 mph - N/A   Scattered Clouds
7:53 PM 84.9 °F 92.1 °F 73.9 °F 69% 30.10 in 10.0 mi SE 9.2 mph - N/A   Scattered Clouds
8:53 PM 84.0 °F 91.9 °F 75.0 °F 74% 30.11 in 10.0 mi ESE 10.4 mph - N/A   Scattered Clouds
9:53 PM 84.0 °F 91.9 °F 75.0 °F 74% 30.13 in 10.0 mi ESE 9.2 mph - N/A   Scattered Clouds
10:53 PM 84.0 °F 91.2 °F 73.9 °F 72% 30.14 in 10.0 mi SE 6.9 mph - N/A   Scattered Clouds
11:53 PM 82.9 °F 87.5 °F 71.1 °F 67% 30.14 in 10.0 mi ESE 4.6 mph - N/A   Partly Cloudy